Вернуться в каталог

STARLINK-32188

АктивенСвязьVLEO
NORAD 60365·PAYLOAD·🇺🇸 United States

Запущен Aug 4, 2024 с Vandenberg Space Force Base

Loading…

Ближайшие Пролёты (ближайшие 24 часа)

TLE

СвежийSource: CelesTrak SupGP

Эпоха: Sep 15, 2026, 01:56 UTC

1 60365C 24138L   26258.08104167  .00009518  00000+0  30608-3 0  2588
2 60365  53.1586 148.6684 0001376  76.7152 212.6098 15.31697563    17

Отслеживайте STARLINK-32188 в реальном времени с AllMySat

Download on the App Store